Regional Weather Roundup
Issued by NWS Northern Indiana

Home | Current Version | Previous Version | Text Only | Print | Product List | Glossary Off
Versions: 1 2 3 4 5 6 7 8 9 10 11 12 13 14 15 16 17 18 19 20 21 22 23 24 25 26 27 28 29 30 31 32 33 34 35 36 37 38 39 40 41 42 43 44 45 46 47 48 49 50

000
ASUS43 KIWX 282000
RWRIWX

KIWX WEATHER ROUNDUP
NATIONAL WEATHER SERVICE NORTHERN INDIANA
300 PM EST WED JAN 28 2015

NOTE: "FAIR" INDICATES FEW OR NO CLOUDS BELOW 12,000 FEET WITH NO
SIGNIFICANT WEATHER AND/OR OBSTRUCTIONS TO VISIBILITY.

* THESE STATIONS ARE NOT UNDER NWS QUALITY CONTROL. THEY ALSO MAY NOT
  REPORT WEATHER SUCH AS PRECIPITATION OR FOG.

INZ001>027-282100-
NORTHERN INDIANA

CITY           SKY/WX    TMP DP  RH WIND       PRES   REMARKS
GARY*          PTSUNNY   36  14  41 S9        30.17F
SOUTH BEND     MOSUNNY   31  15  52 SE14      30.20F WCI  21
ELKHART*       SUNNY     30   1  29 SE10      30.22F WCI  21
GOSHEN         MOSUNNY   30   8  39 SE13      30.21F WCI  20
ANGOLA*        SUNNY     25   9  50 S9        30.23F WCI  15
FORT WAYNE     PTSUNNY   26  15  63 SE9       30.25F WCI  17
PERU/GRISSOM   SUNNY     31  20  64 SE12      30.20F WCI  21

$$
INZ028>050-282100-
CENTRAL INDIANA

CITY           SKY/WX    TMP DP  RH WIND       PRES   REMARKS
LAFAYETTE      SUNNY     36  19  50 S12       30.19F
KOKOMO*        SUNNY     30  19  64 S15       30.21F WCI  19
MUNCIE*        SUNNY     30  16  56 S10       30.23F WCI  21
INDIANAPOLIS   PTSUNNY   33  15  47 SE16      30.20F WCI  23

$$
MIZ043>046-050>051-056>058-064>065-071>073-077>080-282100-
SOUTHWEST LOWER MICHIGAN

CITY           SKY/WX    TMP DP  RH WIND       PRES   REMARKS
BATTLE CREEK   PTSUNNY   31   9  39 S14       30.21F WCI  21
BENTON HARBOR  MOSUNNY   31  14  49 SE13      30.20S WCI  21
COLDWATER*     PTSUNNY   27   5  38 S9        30.22F WCI  18
HILLSDALE*     CLOUDY    26   9  48 CALM      30.23F
HOLLAND        MOSUNNY   33   8  35 SE12      30.19F WCI  24
GRAND RAPIDS   CLOUDY    30   9  41 SE10      30.20F WCI  21
KALAMAZOO      MOSUNNY   29   9  43 S10       30.21F WCI  20
STURGIS*       MOSUNNY   28   9  43 S10       30.21F WCI  19
THREE RIVERS*  FAIR      29   9  42 S9        30.22F WCI  21

$$
OHZ001>008-015>018-024>025-282100-
NORTHWEST OHIO

CITY           SKY/WX    TMP DP  RH WIND       PRES   REMARKS
DEFIANCE       PTSUNNY   25  10  53 S7        30.29F WCI  17
FINDLAY        SUNNY     24  14  65 SE9       30.27F WCI  14
TOLEDO EXPRESS FAIR      24  11  57 S6        30.29F WCI  17
TOLEDO METCALF SUNNY     25  13  60 S9        30.31F WCI  15
LIMA           MOSUNNY   26  15  63 SE9       30.26F WCI  17

$$
AND FOR LAKE MICHIGAN COASTAL AND OPEN LAKE BUOY OBSERVATIONS

STATION/POSITION TEMP    WIND        PRES    VSBY  WAVE
                 AIR SEA DIR/SP/G                  HT/PER
                 (F)     (DEG/KT/KT) (MB)    (MI)  (FT/S)
CALUMET HARBOR    33     160/ 13/ 16   N/A
MICHIGAN CITY     31     150/ 13/ 17   N/A
SAINT JOSEPH      33     160/  4/ 12 1023.0F
SAINT JOSEPH CG                      1024.3      6   0

$$
&&



USA.gov is the U.S. government's official web portal to all federal, state and local government web resources and services.